[[{"header":{"parameterUnit":"m.s-1","parameterCategory":1,"la1":30.2991,"la2":30.254,"lo1":-89.0895,"lo2":-89.0444,"dy":0.0017,"dx":0.0017,"nx":28,"ny":28,"refTime":"2024-05-29T09:00:00:Z","depth":0,"parameterNumber":2,"parameterNumberName":"U-component_of_WINDS"},"data":[0,0,0,0,0,0,0,0,0,0,0,0,0,0,0,0,0,0,0,0,0,0,0,0,0,0,0,0,0,0,0,0,0,0,0,0,0,0,0,0,0,0,0,0,0,0,0,0,0,0,0,0,0,0,0,0,0,0,-2.0445,-2.0444,0,-2.0392,-2.0392,-2.0391,-2.0311,-2.0309,-2.0308,-2.0306,-2.0252,-2.0252,-2.0252,0,0,0,0,0,0,0,0,0,0,0,0,0,-2.0476,-2.0476,-2.0445,-2.0444,-2.0444,-2.0392,-2.0392,-2.0391,-2.0311,-2.0309,-2.0307,-2.0306,-2.0252,-2.0252,-2.0252,0,0,0,0,0,0,0,0,0,0,0,0,0,-2.0447,-2.0476,-2.0445,-2.0398,-2.0393,-2.0392,-2.0392,-2.0391,-2.0311,-2.0309,-2.0307,-2.0305,-2.0252,-2.0252,-2.0252,-2.0294,0,0,-2.0251,-2.0251,0,0,0,0,0,0,0,0,-2.0449,-2.0446,-2.0405,-2.0401,-2.0396,-2.0356,-2.0383,-2.0358,-2.0312,-2.0342,-2.0306,-2.0304,-2.0288,-2.0285,-2.028,-2.0291,-2.0289,-2.0251,-2.0251,-2.0251,-2.0251,0,0,0,0,0,0,0,-2.0451,-2.0448,-2.0424,-2.0405,-2.0399,-2.0379,-2.0372,-2.0378,-2.0328,-2.0339,-2.0333,-2.0328,-2.0285,-2.028,-2.0278,-2.0288,-2.0251,-2.0251,-2.0251,-2.0251,-2.033,-2.0332,0,0,0,0,0,0,-2.046,-2.045,-2.0426,-2.0422,-2.0418,-2.038,-2.0373,-2.0371,-2.0328,-2.0319,-2.033,-2.0325,-2.0282,-2.0278,-2.0276,-2.0321,-2.0251,-2.0251,-2.0251,-2.0328,-2.033,-2.0333,0,0,0,0,0,0,-2.0461,-2.0459,-2.0428,-2.0435,-2.0429,-2.0382,-2.038,-2.0371,-2.0366,-2.0321,-2.0311,-2.0334,-2.028,-2.0276,-2.029,-2.0318,-2.0251,-2.0251,-2.0325,-2.0329,-2.0332,-2.0413,0,0,0,0,0,0,-2.0462,-2.046,-2.0475,-2.0436,-2.0429,-2.0443,-2.0382,-2.0371,-2.0366,-2.0358,-2.0322,-2.0314,-2.0278,-2.029,-2.0289,-2.0317,-2.0251,-2.0322,-2.0327,-2.0331,-2.0407,-2.0418,-2.0428,0,0,0,0,0,-2.0464,-2.05,-2.0476,-2.0474,-2.0447,-2.0445,-2.0441,-2.0399,-2.0368,-2.0383,-2.0354,-2.0315,-2.0315,-2.0292,-2.0291,-2.0318,-2.032,-2.0325,-2.033,-2.0403,-2.0416,-2.0428,0,0,0,0,0,0,-2.0544,-2.0494,-2.0467,-2.0492,-2.0473,-2.0431,-2.0449,-2.0415,-2.0404,-2.0398,-2.0346,-2.0338,-2.0358,-2.034,-2.0315,-2.0356,-2.0312,-2.0317,-2.0367,-2.038,-2.039,-2.0394,-2.025,0,0,0,0,0,-2.0564,-2.0566,-2.0523,-2.0549,-2.0541,-2.0497,-2.0494,-2.0463,-2.0442,-2.0433,-2.0405,-2.0386,-2.0382,-2.038,-2.0373,-2.0405,-2.0395,-2.0423,-2.0433,-2.0442,-2.0446,-2.0461,-2.0472,-2.0349,-2.0349,-2.0349,0,0,-2.0607,-2.058,-2.0584,-2.0564,-2.0546,-2.0549,-2.0491,-2.0496,-2.0498,-2.0434,-2.0445,-2.0424,-2.0399,-2.0422,-2.043,-2.0407,-2.0478,-2.0448,-2.0455,-2.0455,-2.0467,-2.0479,-2.0489,-2.0352,-2.0352,-2.0351,0,0,-2.0685,-2.0666,-2.0685,-2.0668,-2.0641,-2.0612,-2.0617,-2.058,-2.0564,-2.0574,-2.0526,-2.0527,-2.0521,-2.0505,-2.0496,-2.0569,-2.0532,-2.0569,-2.0622,-2.0637,-2.0647,-2.0655,-2.068,-2.069,-2.0573,-2.0574,-2.0574,0,-2.0741,-2.0744,-2.0699,-2.0708,-2.07,-2.0643,-2.0661,-2.0647,-2.062,-2.0616,-2.0591,-2.0581,-2.056,-2.0578,-2.0596,-2.0591,-2.0594,-2.0572,-2.0649,-2.0657,-2.0664,-2.0687,-2.0697,-2.0578,-2.0578,-2.0577,-2.0577,0,-2.0814,-2.0817,-2.0835,-2.0811,-2.0805,-2.0819,-2.0776,-2.0776,-2.0746,-2.0719,-2.073,-2.0703,-2.069,-2.0692,-2.0663,-2.0705,-2.0692,-2.0658,-2.0613,-2.0681,-2.0702,-2.0711,-2.0585,-2.0583,-2.0582,-2.058,0,0,-2.0941,-2.0891,-2.0899,-2.0887,-2.0853,-2.0854,-2.0866,-2.0853,-2.0854,-2.0837,-2.0845,-2.0841,-2.081,-2.08,-2.0768,-2.0782,-2.084,-2.0746,-2.0745,-2.0764,-2.0885,-2.091,-2.0921,-2.0816,-2.0818,-2.0819,-2.0887,0,-2.1012,-2.1029,-2.0988,-2.1015,-2.1016,-2.0962,-2.0972,-2.0952,-2.0928,-2.0926,-2.0898,-2.0896,-2.0856,-2.0849,-2.086,-2.0831,-2.0864,-2.0826,-2.0822,-2.0823,-2.083,-2.0933,-2.0959,-2.1024,-2.0895,-2.0897,-2.0898,0,-2.1098,-2.1085,-2.1112,-2.1077,-2.1076,-2.1086,-2.1071,-2.107,-2.1046,-2.1028,-2.1017,-2.098,-2.0988,-2.0945,-2.0955,-2.093,-2.0927,-2.0912,-2.0914,-2.0911,-2.0864,-2.0932,-2.1044,-2.1054,-2.091,-2.0909,-2.0908,0,-2.1187,-2.1177,-2.1192,-2.1183,-2.1143,-2.1151,-2.1134,-2.1109,-2.1104,-2.1091,-2.1087,-2.1075,-2.1069,-2.106,-2.1021,-2.0993,-2.1036,-2.099,-2.102,-2.1021,-2.1031,-2.1031,-2.1144,-2.103,-2.103,-2.103,-2.103,0,-2.1271,-2.1289,-2.1231,-2.124,-2.1259,-2.1212,-2.1232,-2.121,-2.1189,-2.1192,-2.1144,-2.1149,-2.1097,-2.1095,-2.1065,-2.1078,-2.1075,-2.106,-2.1051,-2.1064,-2.1066,-2.106,-2.1054,-2.1032,-2.1032,-2.1031,-2.1031,0,-2.1373,-2.1335,-2.1348,-2.1309,-2.1299,-2.1315,-2.1281,-2.1288,-2.126,-2.1265,-2.1264,-2.1221,-2.1216,-2.1176,-2.1163,-2.1143,-2.1167,-2.115,-2.1175,-2.1169,-2.1202,-2.1199,-2.1314,-2.1327,-2.1207,-2.1208,-2.1209,0,-2.1429,-2.1442,-2.1404,-2.1403,-2.1389,-2.1388,-2.1382,-2.1337,-2.1333,-2.1308,-2.1318,-2.1309,-2.13,-2.1296,-2.1263,-2.1253,-2.1235,-2.1276,-2.1233,-2.1245,-2.1235,-2.1234,-2.1235,-2.1285,-2.1287,-2.1288,-2.1289,0,-2.1531,-2.1512,-2.1506,-2.1494,-2.1489,-2.1477,-2.1462,-2.1464,-2.1414,-2.1412,-2.1407,-2.14,-2.1387,-2.1379,-2.1363,-2.1345,-2.1309,-2.1303,-2.1309,-2.1322,-2.1336,-2.1328,-2.1199,-2.13,-2.1299,-2.1298,-2.1298,-2.1297,-2.1612,-2.162,-2.1595,-2.159,-2.1574,-2.1561,-2.1565,-2.1538,-2.1534,-2.1519,-2.1493,-2.1492,-2.1468,-2.1442,-2.1428,-2.1426,-2.1405,-2.1414,-2.1417,-2.142,-2.1426,-2.1337,-2.1423,-2.1423,-2.1423,-2.1422,-2.1422,0,-2.1711,-2.1692,-2.1688,-2.1669,-2.1665,-2.1631,-2.1613,-2.1612,-2.1611,-2.1592,-2.1584,-2.1579,-2.1571,-2.1538,-2.1527,-2.1532,-2.1515,-2.153,-2.1529,-2.1525,-2.1446,-2.1441,-2.1544,-2.1544,-2.1544,-2.1544,-2.1544,-2.1544,-2.1763,-2.1775,-2.1753,-2.1757,-2.1738,-2.1737,-2.1729,-2.1717,-2.1702,-2.1697,-2.1691,-2.1669,-2.1644,-2.1631,-2.1622,-2.1612,-2.161,-2.1631,-2.1616,-2.1543,-2.1531,-2.152,-2.1515,-2.1631,-2.1632,-2.1695,-2.1696,-2.1697]},{"header":{"parameterUnit":"m.s-1","parameterCategory":1,"la1":30.2991,"la2":30.254,"lo1":-89.0895,"lo2":-89.0444,"dy":0.0017,"dx":0.0017,"nx":28,"ny":28,"refTime":"2024-05-29T09:00:00:Z","depth":0,"parameterNumber":3,"parameterNumberName":"V-component_of_WINDS"},"data":[0,0,0,0,0,0,0,0,0,0,0,0,0,0,0,0,0,0,0,0,0,0,0,0,0,0,0,0,0,0,0,0,0,0,0,0,0,0,0,0,0,0,0,0,0,0,0,0,0,0,0,0,0,0,0,0,0,0,2.9846,2.9846,0,2.9834,2.9834,2.9834,2.9783,2.9782,2.978,2.9779,2.9768,2.9769,2.9769,0,0,0,0,0,0,0,0,0,0,0,0,0,2.9826,2.9827,2.9846,2.9846,2.9846,2.9834,2.9834,2.9834,2.9783,2.9781,2.978,2.9779,2.9768,2.9768,2.9769,0,0,0,0,0,0,0,0,0,0,0,0,0,2.9827,2.9827,2.9846,2.9819,2.9817,2.9834,2.9834,2.9834,2.9783,2.9781,2.978,2.9778,2.9767,2.9768,2.977,2.9813,0,0,2.9773,2.9774,0,0,0,0,0,0,0,0,2.9827,2.9827,2.9823,2.9821,2.9818,2.9808,2.9823,2.9827,2.9784,2.9796,2.9779,2.9777,2.9783,2.9783,2.9784,2.9812,2.9812,2.9773,2.9774,2.9775,2.9775,0,0,0,0,0,0,0,2.9827,2.9828,2.9841,2.9823,2.982,2.9808,2.9806,2.9823,2.98,2.9795,2.9791,2.979,2.9781,2.9783,2.9784,2.9812,2.9773,2.9774,2.9775,2.9776,2.9874,2.9876,0,0,0,0,0,0,2.983,2.9828,2.9842,2.9841,2.9818,2.981,2.9807,2.9813,2.9799,2.9795,2.9792,2.9788,2.9782,2.9782,2.9783,2.9832,2.9775,2.9776,2.9776,2.9873,2.9875,2.9877,0,0,0,0,0,0,2.983,2.9832,2.9842,2.9834,2.9834,2.9812,2.9819,2.9814,2.9816,2.9797,2.9793,2.9798,2.9781,2.9781,2.9806,2.9831,2.9776,2.9777,2.987,2.9873,2.9876,2.9931,0,0,0,0,0,0,2.983,2.9832,2.9848,2.9834,2.9835,2.9865,2.982,2.9815,2.9818,2.9813,2.9802,2.9798,2.9779,2.9804,2.9807,2.9832,2.9778,2.9868,2.9872,2.9875,2.9927,2.9935,2.9943,0,0,0,0,0,2.9829,2.9865,2.9849,2.9851,2.9854,2.9867,2.9867,2.9844,2.982,2.9836,2.9824,2.9799,2.9828,2.9807,2.981,2.9835,2.9866,2.9871,2.9875,2.9923,2.9934,2.9943,0,0,0,0,0,0,2.9882,2.9862,2.9845,2.9877,2.9874,2.9858,2.9877,2.9856,2.9859,2.9854,2.9826,2.9824,2.9853,2.9847,2.9823,2.9876,2.9843,2.9848,2.9879,2.9889,2.9897,2.9897,2.9779,0,0,0,0,0,2.9898,2.9909,2.9891,2.9921,2.992,2.9899,2.9904,2.9887,2.9882,2.9881,2.987,2.9868,2.9876,2.9882,2.9889,2.9926,2.9923,2.9945,2.9953,2.996,2.9964,2.9983,2.9992,2.9891,2.9891,2.9891,0,0,2.993,2.992,2.9929,2.9932,2.9927,2.994,2.9899,2.9914,2.9923,2.9883,2.9905,2.9898,2.9893,2.9924,2.9937,2.9919,2.9992,2.9965,2.9971,2.9971,2.9988,2.9998,3.0007,2.9894,2.9893,2.9893,0,0,2.9994,2.9988,3.0012,3.0008,3.0002,2.9988,2.9994,2.9981,2.9975,2.9996,2.9967,2.9978,2.9993,2.9991,2.9991,3.0056,3.0032,3.0059,3.01,3.0119,3.0127,3.0134,3.0156,3.0164,3.0064,3.0064,3.0064,0,3.0034,3.0052,3.0027,3.0044,3.0046,3.0011,3.0035,3.0033,3.0029,3.0032,3.0013,3.0031,3.0025,3.0055,3.007,3.0073,3.0078,3.0059,3.0128,3.0134,3.014,3.0161,3.017,3.0067,3.0067,3.0066,3.0066,0,3.0101,3.0114,3.0135,3.0132,3.0136,3.0157,3.0135,3.0143,3.0126,3.0114,3.0136,3.0128,3.0133,3.0139,3.0122,3.0166,3.0155,3.0133,3.0098,3.0154,3.0173,3.0181,3.0071,3.007,3.0069,3.0069,0,0,3.0198,3.0181,3.0189,3.0187,3.0178,3.0187,3.0207,3.0211,3.0218,3.0217,3.0232,3.0246,3.0225,3.0226,3.0209,3.0226,3.0276,3.0201,3.02,3.0214,3.0324,3.034,3.035,3.0261,3.0263,3.0264,3.0324,0,3.0258,3.0289,3.0268,3.0303,3.0314,3.0281,3.0298,3.0295,3.0284,3.0293,3.0281,3.0292,3.0263,3.0263,3.0279,3.0267,3.0298,3.0263,3.0275,3.0276,3.0276,3.036,3.0377,3.0434,3.0331,3.0332,3.0333,0,3.0332,3.0334,3.037,3.0359,3.0363,3.0378,3.038,3.0389,3.0385,3.0376,3.0377,3.0356,3.0375,3.0342,3.0367,3.0343,3.0347,3.0343,3.0344,3.0344,3.0307,3.036,3.0451,3.046,3.0345,3.0344,3.0343,0,3.0398,3.041,3.0433,3.0432,3.042,3.0431,3.0427,3.042,3.0424,3.0426,3.0428,3.0433,3.0435,3.044,3.042,3.0398,3.0448,3.0413,3.0441,3.0441,3.0451,3.0451,3.0543,3.0456,3.0456,3.0456,3.0456,0,3.0467,3.049,3.0462,3.0476,3.0501,3.0476,3.0502,3.0494,3.0489,3.0501,3.0473,3.0485,3.046,3.0469,3.0455,3.0477,3.0479,3.0472,3.0468,3.0474,3.0475,3.0475,3.047,3.0458,3.0458,3.0457,3.0457,0,3.0543,3.0526,3.0548,3.0535,3.0532,3.0551,3.0539,3.0552,3.054,3.0555,3.0558,3.0539,3.0549,3.053,3.0538,3.0528,3.056,3.055,3.0561,3.0558,3.0586,3.0583,3.0681,3.0692,3.0599,3.06,3.0601,0,3.0588,3.0605,3.0593,3.0599,3.0596,3.0606,3.061,3.0587,3.0592,3.0588,3.0601,3.0609,3.0613,3.0631,3.0618,3.0624,3.0613,3.0647,3.0614,3.0619,3.0612,3.0611,3.0613,3.0654,3.0655,3.0656,3.0656,0,3.0669,3.0659,3.0665,3.0669,3.0674,3.0676,3.0675,3.0682,3.0658,3.0665,3.0674,3.0678,3.0686,3.0693,3.0696,3.0692,3.067,3.0667,3.0674,3.068,3.0685,3.0681,3.0578,3.0665,3.0664,3.0663,3.0663,3.0662,3.073,3.0743,3.0737,3.0745,3.0742,3.0743,3.0754,3.0743,3.0751,3.0755,3.0741,3.0754,3.0749,3.0751,3.0749,3.0758,3.0743,3.0753,3.0755,3.0757,3.0762,3.0684,3.0759,3.0759,3.0758,3.0758,3.0758,0,3.0809,3.0803,3.0811,3.0811,3.0817,3.0797,3.0795,3.0802,3.0813,3.0811,3.0816,3.0827,3.0834,3.0823,3.0828,3.0838,3.0829,3.084,3.0839,3.0838,3.0775,3.0769,3.0848,3.0848,3.0848,3.0848,3.0848,3.0848,3.085,3.0872,3.0861,3.0881,3.0876,3.0887,3.0888,3.0889,3.0886,3.09,3.0906,3.0898,3.0892,3.0897,3.0903,3.0899,3.0902,3.0917,3.091,3.0852,3.0843,3.0834,3.0828,3.0919,3.0919,3.0972,3.0973,3.0973]}]]